Hourly Data Report for May 29, 2012

All times are specified in Local Standard Time (LST). Add 1 hour to adjust for Daylight Saving Time where and when it is observed.

LONDON A
ONTARIO

43°01'59.000" N
81°09'04.000" W
278.00 m
6144473
71623
YXU

Download Data

Hourly Data (May 2012)
Hourly Data Report for May 29, 2012
Temp Definition
°C
Dew Point Temp Definition
°C
Rel Hum Definition
%
Wind Dir Definition
10's deg

Wind Spd Definition
km/h
Visibility Definition
km
Stn Press Definition
kPa
Hmdx Definition


Wind Chill Definition


Weather Definition


TIME
00:00 Legend Double Dagger 24.9 19.8 73 21 24 10.0 97.54 32   LegendNANA
01:00 Legend Double Dagger 24.3 19.9 76 20 18 10.0 97.50 32   Mainly Clear
02:00 Legend Double Dagger 24.2 19.8 76 21 18 10.0 97.47 32   LegendNANA
03:00 Legend Double Dagger 24.1 19.5 75 21 19 10.0 97.45 31   LegendNANA
04:00 Legend Double Dagger 23.9 19.3 75 21 18 10.0 97.39 31   Mainly Clear
05:00 Legend Double Dagger 24.2 19.4 74 24 16 10.0 97.35 31   Thunderstorms
06:00 Legend Double Dagger 23.8 19.8 78 21 17 10.0 97.41 31   LegendNANA
07:00 Legend Double Dagger 24.0 19.6 76 22 21 10.0 97.46 31   Cloudy
08:00 Legend Double Dagger 22.8 20.0 84 22 15 10.0 97.47 30   LegendNANA
09:00 Legend Double Dagger 21.5 16.8 74 22 35 6.4 97.61 27   Thunderstorms,Rain Showers,Fog
10:00 Legend Double Dagger 18.7 16.5 87 22 27 10.0 97.59     Thunderstorms
11:00 Legend Double Dagger 21.3 17.6 79 26 20 10.0 97.45 27   LegendNANA
12:00 Legend Double Dagger 20.2 17.5 84 27 30 10.0 97.43 26   Rain Showers
13:00 Legend Double Dagger 21.7 18.0 79 27 23 10.0 97.45 28   Cloudy
14:00 Legend Double Dagger 22.7 18.3 76 29 19 10.0 97.45 29   LegendNANA
15:00 Legend Double Dagger 24.4 14.1 52 30 19 10.0 97.46 28   LegendNANA
16:00 Legend Double Dagger 24.8 11.9 44 29 19 10.0 97.45 27   Mainly Clear
17:00 Legend Double Dagger 23.9 10.4 42 29 15 10.0 97.40 25   LegendNANA
18:00 Legend Double Dagger 23.5 9.7 41 28 14 10.0 97.39 25   LegendNANA
19:00 Legend Double Dagger 23.0 10.6 45 28 8 10.0 97.42 25   Mostly Cloudy
20:00 Legend Double Dagger 19.7 11.1 57 26 5 10.0 97.43     LegendNANA
21:00 Legend Double Dagger 20.1 10.1 52 30 8 10.0 97.48     LegendNANA
22:00 Legend Double Dagger 16.7 10.4 66 25 4 10.0 97.52     Mainly Clear
23:00 Legend Double Dagger 17.9 9.6 58   0 10.0 97.50     LegendNANA

Notes on Data Quality.

Legend

  • E = Estimated
  • M = Missing
  • NA = Not Available
  • ‡ = Partner data that is not subject to review by the National Climate Archives
Date modified: